Hourly Weather Minsk

Today, 23 April, Friday

Time Temperature Precipitation Wind Pressure Humidity
00:00 +2°C° 0 mm 3 mps 739 mmHg 81%
01:00 +2°C° 0 mm 3 mps 739 mmHg 83%
02:00 +1°C° 0 mm 3 mps 739 mmHg 85%
03:00 +1°C° 0 mm 3 mps 739 mmHg 87%
04:00 0°C° 0 mm 3 mps 739 mmHg 89%
05:00 0°C° 0 mm 3 mps 739 mmHg 91%
06:00 -1°C° 0 mm 4 mps 739 mmHg 86%
07:00 0°C° 0 mm 5 mps 740 mmHg 81%
08:00 -1°C° 0 mm 6 mps 740 mmHg 76%
09:00 +1°C° 0 mm 6 mps 740 mmHg 73%
10:00 +1°C° 0 mm 6 mps 740 mmHg 71%
11:00 +2°C° 0 mm 6 mps 740 mmHg 69%
12:00 +2°C° 0.2 mm 6 mps 740 mmHg 67%
13:00 +3°C° 0.2 mm 6 mps 740 mmHg 65%
14:00 +4°C° 0.2 mm 6 mps 740 mmHg 63%
15:00 +4°C° 0.2 mm 6 mps 740 mmHg 61%
16:00 +5°C° 0.2 mm 5 mps 740 mmHg 60%
17:00 +5°C° 0.2 mm 5 mps 740 mmHg 58%
18:00 +4°C° 0.2 mm 4 mps 740 mmHg 65%
19:00 +3°C° 0.2 mm 4 mps 740 mmHg 71%
20:00 +1°C° 0.2 mm 4 mps 740 mmHg 78%
21:00 0°C° 0 mm 4 mps 740 mmHg 82%
22:00 0°C° 0 mm 4 mps 740 mmHg 86%
23:00 -1°C° 0 mm 4 mps 740 mmHg 90%

Tomorrow, 24 April, Saturday

Time Temperature Precipitation Wind Pressure Humidity
00:00 -1°C° 0.4 mm 5 mps 740 mmHg 91%
01:00 -2°C° 0.4 mm 5 mps 740 mmHg 93%
02:00 -3°C° 0.4 mm 6 mps 740 mmHg 95%
03:00 -3°C° 0.5 mm 6 mps 740 mmHg 93%
04:00 -3°C° 0.5 mm 6 mps 741 mmHg 91%
05:00 -4°C° 0.5 mm 6 mps 741 mmHg 89%
06:00 -3°C° 0 mm 6 mps 741 mmHg 86%
07:00 -3°C° 0 mm 6 mps 741 mmHg 82%
08:00 -3°C° 0 mm 6 mps 742 mmHg 79%
09:00 -2°C° 0.1 mm 6 mps 742 mmHg 76%
10:00 -1°C° 0.1 mm 6 mps 742 mmHg 73%
11:00 +1°C° 0.1 mm 5 mps 742 mmHg 70%
12:00 +2°C° 0.2 mm 5 mps 742 mmHg 64%
13:00 +3°C° 0.2 mm 6 mps 742 mmHg 58%
14:00 +4°C° 0.2 mm 6 mps 742 mmHg 52%
15:00 +3°C° 0.2 mm 6 mps 742 mmHg 56%
16:00 +3°C° 0.2 mm 6 mps 742 mmHg 60%
17:00 +3°C° 0.2 mm 6 mps 742 mmHg 64%
18:00 +2°C° 0.1 mm 5 mps 742 mmHg 68%
19:00 +1°C° 0.1 mm 4 mps 742 mmHg 72%
20:00 0°C° 0.1 mm 4 mps 742 mmHg 77%
21:00 -1°C° 0 mm 4 mps 742 mmHg 79%
22:00 -2°C° 0 mm 4 mps 742 mmHg 81%
23:00 -2°C° 0 mm 3 mps 742 mmHg 83%

Day after tomorrow, 25 April, Sunday

Time Temperature Precipitation Wind Pressure Humidity
00:00 -2°C° 0 mm 3 mps 742 mmHg 82%
01:00 -2°C° 0 mm 3 mps 742 mmHg 82%
02:00 -2°C° 0 mm 3 mps 742 mmHg 81%
03:00 -4°C° 0 mm 3 mps 742 mmHg 83%
04:00 -4°C° 0 mm 3 mps 742 mmHg 86%
05:00 -5°C° 0 mm 3 mps 741 mmHg 88%
06:00 -3°C° 0 mm 4 mps 741 mmHg 82%
07:00 -2°C° 0 mm 5 mps 741 mmHg 76%
08:00 -2°C° 0 mm 6 mps 741 mmHg 69%
09:00 -1°C° 0.1 mm 6 mps 741 mmHg 65%
10:00 +1°C° 0.1 mm 6 mps 741 mmHg 60%
11:00 +2°C° 0.1 mm 6 mps 742 mmHg 56%
12:00 +2°C° 0.1 mm 6 mps 741 mmHg 54%
13:00 +3°C° 0.1 mm 6 mps 741 mmHg 51%
14:00 +3°C° 0.1 mm 6 mps 741 mmHg 49%
15:00 +3°C° 0.2 mm 6 mps 741 mmHg 51%
16:00 +3°C° 0.2 mm 6 mps 741 mmHg 52%
17:00 +3°C° 0.2 mm 5 mps 741 mmHg 54%
18:00 +3°C° 0.1 mm 4 mps 741 mmHg 61%
19:00 +1°C° 0.1 mm 4 mps 741 mmHg 68%
20:00 0°C° 0.1 mm 3 mps 741 mmHg 74%
21:00 0°C° 0 mm 3 mps 741 mmHg 77%
22:00 0°C° 0 mm 3 mps 741 mmHg 80%
23:00 -1°C° 0 mm 3 mps 741 mmHg 83%

26 April, Monday

Time Temperature Precipitation Wind Pressure Humidity
00:00 -1°C° 0 mm 3 mps 741 mmHg 85%
01:00 -2°C° 0 mm 3 mps 741 mmHg 87%
02:00 -2°C° 0 mm 3 mps 741 mmHg 90%
03:00 -2°C° 0 mm 3 mps 741 mmHg 89%
04:00 -4°C° 0 mm 3 mps 741 mmHg 88%
05:00 -4°C° 0 mm 3 mps 741 mmHg 87%
06:00 -3°C° 0 mm 4 mps 741 mmHg 80%
07:00 -2°C° 0 mm 4 mps 741 mmHg 73%
08:00 -1°C° 0 mm 5 mps 741 mmHg 66%
09:00 0°C° 0.1 mm 5 mps 740 mmHg 65%
10:00 +1°C° 0.1 mm 6 mps 740 mmHg 64%
11:00 +1°C° 0.1 mm 6 mps 740 mmHg 63%
12:00 +2°C° 0.2 mm 6 mps 740 mmHg 60%
13:00 +3°C° 0.2 mm 6 mps 740 mmHg 56%
14:00 +4°C° 0.2 mm 6 mps 740 mmHg 53%
15:00 +4°C° 0.3 mm 6 mps 739 mmHg 55%
16:00 +4°C° 0.3 mm 6 mps 739 mmHg 58%
17:00 +5°C° 0.3 mm 5 mps 739 mmHg 60%
18:00 +2°C° 0.2 mm 5 mps 739 mmHg 67%
19:00 +1°C° 0.2 mm 4 mps 739 mmHg 74%
20:00 +1°C° 0.2 mm 3 mps 739 mmHg 81%
21:00 0°C° 0 mm 3 mps 739 mmHg 83%
22:00 0°C° 0 mm 3 mps 739 mmHg 85%
23:00 +1°C° 0 mm 2 mps 739 mmHg 87%

27 April, Tuesday

Time Temperature Precipitation Wind Pressure Humidity
00:00 -1°C° 0 mm 2 mps 739 mmHg 88%
01:00 -2°C° 0 mm 3 mps 739 mmHg 90%
02:00 -2°C° 0 mm 3 mps 739 mmHg 91%
03:00 -4°C° 0 mm 3 mps 739 mmHg 91%
04:00 -4°C° 0 mm 3 mps 739 mmHg 92%
05:00 -3°C° 0 mm 2 mps 739 mmHg 92%
06:00 -2°C° 0 mm 3 mps 739 mmHg 84%
07:00 0°C° 0 mm 3 mps 740 mmHg 77%
08:00 0°C° 0 mm 4 mps 740 mmHg 70%
09:00 +1°C° 0 mm 4 mps 740 mmHg 65%
10:00 +3°C° 0 mm 4 mps 740 mmHg 59%
11:00 +4°C° 0 mm 4 mps 740 mmHg 54%
12:00 +5°C° 0 mm 4 mps 740 mmHg 53%
13:00 +5°C° 0 mm 4 mps 740 mmHg 53%
14:00 +6°C° 0 mm 4 mps 740 mmHg 52%
15:00 +7°C° 0 mm 3 mps 740 mmHg 52%
16:00 +7°C° 0 mm 3 mps 740 mmHg 52%
17:00 +7°C° 0 mm 3 mps 740 mmHg 53%
18:00 +5°C° 0 mm 2 mps 740 mmHg 60%
19:00 +5°C° 0 mm 1 mps 740 mmHg 66%
20:00 +3°C° 0 mm 1 mps 740 mmHg 73%
21:00 +3°C° 0 mm 1 mps 740 mmHg 75%
22:00 +3°C° 0 mm 1 mps 740 mmHg 76%
23:00 +1°C° 0 mm 2 mps 740 mmHg 78%

28 April, Wednesday

Time Temperature Precipitation Wind Pressure Humidity
00:00 +1°C° 0 mm 2 mps 740 mmHg 78%
01:00 +1°C° 0 mm 2 mps 740 mmHg 79%
02:00 +1°C° 0 mm 2 mps 740 mmHg 79%
03:00 0°C° 0 mm 3 mps 740 mmHg 78%
04:00 0°C° 0 mm 3 mps 739 mmHg 77%
05:00 0°C° 0 mm 3 mps 739 mmHg 76%
06:00 +2°C° 0 mm 3 mps 739 mmHg 72%
07:00 +3°C° 0 mm 4 mps 739 mmHg 68%
08:00 +3°C° 0 mm 5 mps 738 mmHg 65%
09:00 +3°C° 0.1 mm 5 mps 738 mmHg 69%
10:00 +4°C° 0.1 mm 6 mps 738 mmHg 72%
11:00 +4°C° 0.1 mm 7 mps 737 mmHg 76%
12:00 +4°C° 0.9 mm 6 mps 737 mmHg 83%
13:00 +3°C° 0.9 mm 6 mps 736 mmHg 89%
14:00 +2°C° 0.9 mm 5 mps 736 mmHg 96%
15:00 +2°C° 0.4 mm 5 mps 736 mmHg 96%
16:00 +3°C° 0.4 mm 4 mps 735 mmHg 97%
17:00 +4°C° 0.4 mm 4 mps 735 mmHg 97%
18:00 +4°C° 0.2 mm 4 mps 735 mmHg 97%
19:00 +4°C° 0.2 mm 3 mps 734 mmHg 98%
20:00 +5°C° 0.2 mm 3 mps 734 mmHg 98%
21:00 +5°C° 0.7 mm 3 mps 734 mmHg 98%
22:00 +5°C° 0.7 mm 3 mps 734 mmHg 98%
23:00 +7°C° 0.7 mm 3 mps 733 mmHg 98%
Show more